Theta_e
344 345 347 347 344 341 338 334 333 332 332 331 331 331 332 340 339 341 341 348 347 345 342 340 338 337 336 334 333 333 335 334 332 331 329 328 327 327 326 325 325 325 325
343 345 346 345 343 341 339 334 333 332 332 332 331 330 341 339 339 339 340 343 346 345 343 340 337 336 334 333 333 335 332 330 329 327 325 325 323 323 323 322 322 322 322
341 344 345 344 344 342 338 334 335 334 333 333 329 336 341 339 338 338 339 340 341 346 344 343 337 335 333 332 337 332 328 326 326 324 322 321 319 319 319 320 320 320 320
344 340 345 344 345 341 340 337 333 332 331 328 325 337 342 340 340 337 338 336 335 337 342 343 339 334 332 338 334 330 327 324 322 320 318 317 318 318 318 318 319 319 319
346 342 342 345 344 341 339 338 330 329 326 325 330 340 343 344 340 341 337 332 331 333 334 342 339 338 337 334 332 329 326 322 320 317 316 316 317 317 318 318 318 318 319
347 344 343 341 341 341 337 331 329 328 325 327 345 342 343 342 344 340 336 334 330 330 330 332 331 334 333 331 327 325 324 320 317 315 315 315 316 316 316 316 317 318 318
345 345 343 340 340 337 335 330 327 328 328 334 338 339 337 332 334 333 335 334 331 328 327 329 330 326 325 326 322 321 320 318 316 314 314 314 315 316 317 317 316 316 316
344 345 342 340 338 334 333 330 331 330 329 337 334 332 327 330 326 326 326 326 326 327 328 328 326 321 316 314 314 318 316 315 314 314 314 314 315 316 316 315 315 316 316
344 344 343 342 338 336 334 331 332 331 330 336 334 332 325 320 321 324 323 323 322 320 321 323 322 317 311 308 309 311 313 313 313 314 313 314 315 315 315 315 316 316 316
344 343 342 341 339 336 333 336 335 332 331 332 334 334 330 326 319 316 321 320 321 318 317 316 314 311 309 307 312 315 311 310 313 313 313 314 314 315 314 314 316 314 315
344 344 343 342 338 336 335 340 338 336 334 332 330 330 328 328 324 318 314 317 317 317 314 313 310 308 308 309 306 309 311 310 311 310 311 312 313 313 313 314 315 314 314
342 343 345 343 341 338 338 340 340 338 335 333 332 331 326 325 321 318 313 314 313 309 308 308 308 309 308 307 310 313 317 312 309 309 309 310 311 311 311 313 313 313 314
342 342 342 342 342 339 340 343 339 337 336 330 324 319 318 317 316 312 311 310 310 309 304 306 307 308 308 304 306 312 315 310 308 308 308 308 309 309 310 311 311 311 312
341 342 340 340 341 343 341 340 337 332 325 321 317 315 314 312 313 312 310 313 309 307 303 304 308 306 302 304 309 311 308 309 308 307 307 308 308 308 308 308 308 309 309
340 341 340 336 339 342 339 337 331 325 322 317 314 313 311 308 306 304 306 316 310 303 298 301 301 299 300 300 308 300 303 309 308 308 308 307 306 306 306 306 306 306 306
337 340 339 339 341 341 339 328 324 322 319 317 315 310 307 305 304 302 303 304 305 300 297 300 298 295 297 301 307 301 305 307 309 308 307 306 306 306 307 306 306 305 305
330 336 337 339 335 332 329 322 321 320 317 315 313 310 306 303 302 301 301 303 302 304 297 298 295 295 296 297 299 301 302 300 300 307 307 306 306 306 305 305 304 304 304
330 330 335 334 333 329 326 322 318 316 314 311 310 309 306 306 302 301 301 302 303 303 297 293 292 295 295 296 297 297 299 301 299 305 306 306 305 306 305 305 305 304 303
331 328 331 331 329 327 324 321 317 314 312 310 311 308 304 303 300 301 302 303 301 299 297 294 292 294 294 296 295 296 297 295 300 304 304 304 305 305 306 305 305 305 302
328 331 331 327 325 322 320 317 314 311 309 309 309 307 303 303 301 301 300 298 297 296 295 295 292 292 293 294 294 292 292 293 295 299 300 302 303 304 304 305 305 305 302
323 325 321 319 319 317 315 312 310 307 305 304 303 304 304 307 307 304 299 296 296 295 295 294 291 291 291 291 290 291 291 292 292 295 293 295 297 298 301 302 305 305 301
319 319 316 314 311 310 305 307 307 305 303 303 303 304 305 306 306 305 304 302 300 296 294 293 290 290 289 290 291 289 290 289 289 294 292 292 298 300 301 302 304 304 301
319 318 318 315 310 307 303 302 303 302 299 298 298 298 299 301 301 300 303 303 302 302 300 294 292 291 290 291 290 290 290 289 289 293 292 291 294 298 302 302 304 304 301
312 310 308 309 308 306 301 300 301 298 297 297 297 297 297 298 298 299 298 298 298 298 297 297 294 293 293 294 293 293 291 291 291 294 295 291 293 298 299 302 303 303 301
308 306 305 303 300 299 298 298 298 298 297 298 298 298 298 297 297 298 297 296 295 296 301 299 298 297 296 297 296 294 292 290 289 292 297 296 296 293 298 296 299 303 300
308 306 304 302 300 298 297 297 299 299 298 297 298 298 300 297 296 295 295 294 291 290 293 292 292 294 296 297 299 294 291 291 289 292 298 295 294 294 295 297 297 298 299
Wind_Speed
8 6 6 6 5 4 5 5 5 4 5 5 5 4 4 6 6 5 4 15 13 12 13 12 10 9 8 6 5 6 10 11 13 15 16 17 18 19 19 19 19 19 19
7 8 7 7 6 6 5 5 5 5 5 4 6 1 6 6 7 7 5 7 14 13 12 11 10 9 7 6 7 10 11 12 12 14 16 17 18 18 19 19 19 19 20
7 9 8 7 8 7 6 4 4 3 3 4 3 3 6 7 7 7 6 6 7 12 11 10 9 8 6 5 11 11 11 11 13 15 16 18 19 19 19 19 19 19 19
11 9 8 8 8 5 6 5 4 4 4 4 2 4 5 5 7 6 4 5 4 5 9 10 8 8 6 9 10 9 10 12 15 16 18 19 19 19 19 19 19 20 19
14 9 9 8 8 6 6 6 3 4 4 3 3 4 5 5 6 5 5 5 5 4 3 7 8 8 11 10 10 9 11 13 15 17 18 18 19 21 20 19 18 19 20
13 11 9 10 8 7 6 4 5 3 4 4 3 4 3 2 3 4 5 5 5 5 4 5 5 8 11 10 9 9 11 13 14 15 16 17 20 22 22 21 21 20 20
13 14 9 10 9 9 10 8 5 7 3 3 4 4 4 4 5 3 3 4 5 5 6 6 5 4 5 11 9 9 11 12 14 14 16 18 21 23 23 21 21 20 20
13 15 12 9 9 6 7 8 6 3 3 5 4 3 4 1 3 3 3 4 5 4 6 7 7 7 5 3 5 9 10 12 13 14 15 17 21 24 23 20 18 19 20
14 14 13 12 9 9 9 7 6 8 5 3 4 5 4 3 3 2 4 4 5 4 4 6 7 7 5 4 3 7 7 10 12 13 15 18 22 24 22 20 20 18 19
14 9 9 13 11 8 7 8 6 5 6 6 2 1 3 6 4 2 3 4 4 6 6 5 7 6 4 2 8 9 3 6 10 12 15 19 22 24 22 20 20 19 20
12 11 11 9 11 9 8 10 8 6 4 5 4 3 3 3 3 4 4 3 5 5 5 6 4 3 3 3 2 5 2 4 9 11 15 18 22 23 21 20 20 21 21
9 12 8 9 11 11 11 10 8 9 5 5 4 4 5 4 3 4 4 3 8 4 4 4 3 3 1 3 6 8 12 9 9 12 15 18 21 21 21 20 22 23 24
6 12 8 10 3 4 7 7 7 7 7 5 6 4 3 3 4 4 5 3 5 2 3 2 2 2 3 4 6 12 10 11 9 12 15 17 19 19 20 21 22 23 22
8 13 10 13 11 10 8 5 4 3 6 7 10 7 6 4 3 3 5 10 5 2 2 3 4 4 4 4 11 13 7 9 10 12 13 16 18 21 22 22 22 22 22
7 11 11 10 16 17 7 7 7 8 9 7 9 9 8 4 5 4 4 8 8 5 2 4 2 6 5 5 10 5 5 10 9 13 14 17 19 21 21 21 20 21 20
5 11 15 13 13 11 10 14 10 6 11 6 5 11 8 4 6 5 5 3 3 6 5 3 4 3 5 5 10 6 6 14 15 14 15 18 22 24 24 21 18 20 20
5 10 12 10 7 13 15 16 15 10 9 9 6 10 7 7 5 5 5 5 7 10 11 4 3 4 6 6 7 6 5 5 4 13 14 17 16 20 22 22 22 22 22
6 6 10 10 13 21 16 21 16 11 10 8 6 9 9 8 7 6 5 7 9 8 10 9 2 5 5 4 4 6 5 6 5 13 15 15 16 17 18 20 20 22 21
9 9 13 12 13 13 12 17 22 17 14 9 5 8 9 10 7 5 7 11 10 8 7 7 3 3 3 3 3 3 4 5 4 13 13 14 18 19 17 18 20 22 23
10 11 12 13 13 15 15 16 19 20 17 12 7 5 6 8 9 10 11 12 11 10 8 9 4 4 3 3 3 3 4 2 5 6 9 11 15 16 19 20 21 24 23
8 12 15 14 14 14 12 17 17 17 16 12 11 8 7 12 16 12 10 10 12 9 9 9 5 3 4 4 3 3 3 3 2 4 4 4 6 5 8 13 18 23 23
10 14 16 18 16 11 19 24 22 17 15 15 11 11 11 15 16 19 19 18 14 12 10 7 4 4 2 1 3 2 2 3 4 3 3 5 4 8 7 8 19 17 19
10 12 12 15 17 20 28 25 25 14 16 12 12 12 10 9 15 16 21 23 18 18 14 8 7 3 2 1 0 3 4 2 2 4 3 5 4 6 6 7 16 15 15
9 10 11 11 13 11 32 30 25 16 15 12 11 12 12 13 13 16 15 14 12 10 8 6 6 5 3 2 2 3 1 4 2 4 3 4 3 5 4 5 13 15 16
9 10 11 13 17 13 22 30 25 16 17 14 12 11 12 11 10 13 15 14 11 7 8 7 6 7 8 3 3 3 4 4 4 4 3 2 3 4 3 4 6 13 15
12 11 11 12 20 18 15 22 22 14 16 12 10 10 13 11 12 10 12 12 11 5 6 3 4 5 5 4 7 4 1 4 2 3 3 4 4 4 5 2 4 5 7
Wind_Direction
180 176 181 182 190 192 200 208 214 224 229 243 259 256 203 150 146 142 154 171 176 176 171 167 158 144 136 121 88 54 51 34 24 16 7 359 353 349 342 339 334 331 329
184 184 182 191 198 201 204 203 198 214 228 216 247 204 158 145 143 150 156 173 180 179 181 171 161 151 143 125 81 70 46 41 27 22 13 0 354 346 341 341 337 334 329
185 187 186 196 207 202 202 199 218 207 246 244 247 207 146 144 153 156 166 177 184 186 186 181 162 148 132 109 88 63 50 36 31 20 10 359 351 346 341 338 334 331 332
186 188 191 200 204 187 196 197 184 206 229 214 183 174 145 151 155 171 164 176 177 182 191 176 150 139 126 102 85 71 48 36 27 19 10 359 353 346 341 335 331 327 326
199 190 197 204 199 188 198 196 186 172 193 192 211 144 144 154 167 160 181 195 176 185 149 158 142 133 121 107 84 58 46 36 24 20 12 2 358 351 340 336 334 330 335
196 195 199 201 195 194 204 174 173 186 183 158 124 121 105 145 146 153 186 186 187 169 144 115 107 113 105 96 76 50 38 30 23 22 13 6 357 354 346 336 337 338 333
197 197 199 198 185 188 199 175 155 174 175 150 109 85 54 50 87 122 177 159 164 145 133 124 119 101 107 94 71 52 35 22 21 16 10 2 355 350 347 346 339 333 336
206 204 193 190 183 179 174 180 159 136 155 176 150 139 150 29 34 36 79 100 98 124 127 125 109 92 82 71 60 58 30 19 15 10 8 359 353 351 356 346 338 338 336
213 213 197 188 181 183 188 181 163 153 163 183 200 144 131 180 129 6 46 72 90 80 79 89 89 97 89 64 42 34 27 12 9 9 7 358 353 352 352 343 350 359 354
216 228 204 189 185 189 178 176 175 170 141 166 139 95 93 138 154 124 49 60 77 85 72 68 87 83 85 57 31 12 21 346 16 16 8 359 355 356 351 342 348 356 355
204 205 208 209 191 180 183 177 176 170 167 145 145 143 79 75 100 130 148 127 74 47 64 89 96 116 93 48 350 352 282 348 39 23 10 4 359 354 353 348 353 357 353
199 201 213 206 212 180 185 185 178 171 172 143 139 140 143 151 167 136 111 105 113 49 69 82 120 126 88 33 19 7 13 87 54 22 16 7 355 353 359 359 356 353 351
187 191 163 200 314 282 204 179 170 153 162 132 130 124 110 137 129 123 109 117 119 170 95 66 56 46 32 17 2 25 53 85 54 27 16 360 353 357 357 356 352 349 351
200 190 187 166 200 241 237 179 137 141 107 118 115 99 106 84 108 129 132 134 118 117 76 117 37 19 13 9 27 43 83 78 45 26 10 357 0 358 355 351 352 353 352
195 187 176 182 217 203 174 126 133 129 117 111 105 106 100 89 79 83 112 159 142 143 133 29 98 357 2 20 34 47 84 48 43 27 19 16 7 4 4 2 357 359 357
178 174 183 197 217 216 148 113 102 92 108 92 100 102 96 94 86 74 93 110 103 124 116 113 40 353 1 22 31 44 99 46 58 34 25 20 17 17 16 8 359 6 4
167 147 173 168 165 120 147 94 97 81 83 86 89 111 109 101 85 75 71 89 98 110 120 87 67 1 24 27 13 26 37 19 11 41 30 19 14 10 16 19 22 20 11
166 145 152 145 149 127 122 115 117 110 96 93 107 108 105 99 80 69 77 81 90 84 112 110 37 20 37 4 20 50 20 16 359 26 19 2 7 354 352 360 13 19 11
130 123 129 129 125 133 135 132 123 121 117 117 133 121 124 116 100 96 98 98 90 85 77 104 101 31 17 13 360 20 22 354 354 17 360 345 351 339 340 348 351 13 12
136 144 127 121 124 124 126 126 124 129 131 125 113 116 103 101 107 108 101 101 103 94 96 91 75 47 28 334 23 30 353 331 8 3 328 347 338 345 350 353 360 14 14
108 112 114 108 113 119 125 124 119 125 117 111 102 94 85 105 106 109 114 111 107 106 96 92 82 59 27 17 17 328 320 316 326 8 313 324 331 335 347 349 4 12 14
124 124 124 121 115 108 114 125 125 119 114 117 114 99 102 99 96 104 103 103 106 112 97 101 96 86 55 296 19 326 310 3 7 317 333 306 344 343 353 349 357 16 16
126 125 128 130 129 129 119 112 111 115 111 114 108 111 109 107 105 106 99 101 95 91 100 116 110 118 106 58 331 346 17 356 293 296 15 323 344 329 0 348 354 6 18
117 111 102 113 117 130 131 126 123 117 112 114 119 123 126 125 115 119 115 105 99 95 94 92 96 109 144 135 165 205 192 282 320 296 41 358 329 318 329 352 348 4 7
109 108 109 116 112 115 127 121 119 121 119 114 117 129 133 116 121 121 115 112 98 87 92 102 106 90 67 109 95 47 23 19 356 330 348 3 306 301 322 332 332 1 356
124 118 113 119 127 123 119 121 124 127 122 125 129 128 110 130 115 109 116 118 113 124 122 98 39 35 28 19 40 52 171 57 347 339 333 359 325 351 347 328 325 339 0